Terug naar catalogus

STARLINK-35062

ActiefCommunicatieVLEO
NORAD 65643·PAYLOAD·🇺🇸 United States

Gelanceerd Sep 18, 2025 vanaf Cape Canaveral Space Force Station

Loading…

Volgende Passages (komende 24 uur)

TLE

VersSource: CelesTrak SupGP

Epoch: Sep 14, 2026, 20:37 UTC

1 65643C 25210X   26257.85951389 -.00058260  00000+0 -17211-2 0  2577
2 65643  53.1571 143.8378 0001321  97.5024  67.6562 15.34423923    15

Volg STARLINK-35062 in realtime met AllMySat

Download on the App Store